This is the latest recevied weather packets stored in our database for station/object KN6ETB-1. If no packets are shown the sender has not sent any weather packets the latest 10 day(s).
| Time | Temp. | Humidity | Pressure | Rain* | Wind** | Luminosity | Snow |
|---|---|---|---|---|---|---|---|
| 1777938923 | 16.11° C | 71% | 1011.9 hPa | 0 mm | - | 46 W/m² | - |
| 1777938619 | 16.11° C | 71% | 1011.9 hPa | 0 mm | - | 49 W/m² | - |
| 1777938317 | 16.11° C | 71% | 1012.1 hPa | 0 mm | - | 45 W/m² | - |
| 1777938014 | 16.11° C | 70% | 1012 hPa | 0 mm | - | 48 W/m² | - |
| 1777937709 | 16.67° C | 69% | 1012.1 hPa | 0 mm | - | 54 W/m² | - |
| 1777937406 | 16.67° C | 68% | 1012.2 hPa | 0 mm | - | 57 W/m² | - |
| 1777937103 | 16.67° C | 69% | 1011.9 hPa | 0 mm | - | 57 W/m² | - |
| 1777936801 | 16.67° C | 69% | 1012.1 hPa | 0 mm | - | 58 W/m² | - |
| 1777936497 | 16.67° C | 67% | 1011.9 hPa | 0 mm | - | 64 W/m² | - |
| 1777936193 | 16.67° C | 65% | 1011.9 hPa | 0 mm | - | 74 W/m² | - |
| 1777935890 | 16.67° C | 65% | 1012 hPa | 0 mm | - | 95 W/m² | - |
| 1777935589 | 17.22° C | 65% | 1011.9 hPa | 0 mm | - | 88 W/m² | - |
| 1777935285 | 17.22° C | 64% | 1012.1 hPa | 0 mm | - | 71 W/m² | - |
| 1777934982 | 17.22° C | 62% | 1011.8 hPa | 0 mm | - | 67 W/m² | - |
| 1777934679 | 17.22° C | 61% | 1012.1 hPa | 0 mm | - | 77 W/m² | - |
| 1777934376 | 17.22° C | 62% | 1011.9 hPa | 0 mm | - | 95 W/m² | - |
| 1777934072 | 17.22° C | 61% | 1012 hPa | 0 mm | - | 87 W/m² | - |
| 1777933767 | 17.22° C | 61% | 1011.9 hPa | 0 mm | - | 75 W/m² | - |
| 1777933465 | 17.22° C | 60% | 1012.1 hPa | 0 mm | - | 78 W/m² | - |
| 1777933163 | 17.22° C | 59% | 1012 hPa | 0 mm | - | 77 W/m² | - |
| 1777932860 | 17.78° C | 58% | 1012 hPa | 0 mm | - | 88 W/m² | - |
| 1777932557 | 17.78° C | 58% | 1012.1 hPa | 0 mm | - | 102 W/m² | - |
| 1777932253 | 17.78° C | 59% | 1012.3 hPa | 0 mm | - | 125 W/m² | - |
| 1777931951 | 17.78° C | 59% | 1012.3 hPa | 0 mm | - | 128 W/m² | - |
| 1777931647 | 17.22° C | 60% | 1012.5 hPa | 0 mm | - | 121 W/m² | - |
* Rain latest hour (hover to see other rain measurements)
** Current wind speed in m/s (hover to see current wind gust speed)